Location: Shepherdstown, WV
(39.4326°N, 77.8042°W)
Time: 10:43:56
(UTC-04:00)

S-56A Canister/Altair - Pass Details

Date: 28 July 2021
Orbit: 632 x 2500 km, 38.9° (Epoch: 19 September)

Event Time Altitude Azimuth Distance (km) Brightness Sun altitude
Rises 23:24:06 0° 288° (WNW) 6,031 12.8 -26.1°
Reaches altitude 10° 23:28:44 10° 281° (WNW) 4,849 12.1 -26.5°
Maximum altitude 23:40:01 35° 223° (SW) 2,677 10.0 -27.5°
Enters shadow 23:42:17 32° 201° (SSW) 2,649 9.8 -27.7°
